Weather History for Imperial, NE

Change the Weather History Date:

Wednesday, October 31, 2012

  Actual Average Record
Temperature  
Mean Temperature 55 °F 44 °F  
Max Temperature 74 °F 58 °F 82 °F (1950)
Min Temperature 36 °F 31 °F 7 °F (1931)
Degree Days  
Heating Degree Days 10 21  
Month to date heating degree days 479 446  
Cooling Degree Days 0 0  
Month to date cooling degree days 4 6  
Year to date cooling degree days 1382 963  
Growing Degree Days 5 (Base 50)    
Moisture  
Dew Point 33 °F    
Average Humidity 53    
Maximum Humidity 85    
Minimum Humidity 20    
Precipitation  
Precipitation 0.00 in 0.02 in 0.80 in (1920)
Sea Level Pressure  
Sea Level Pressure 30.04 in    
Wind  
Wind Speed 7 mph (NW)    
Max Wind Speed 16 mph    
Max Gust Speed 20 mph    
Visibility 10 miles    
Events      
T = Trace of Precipitation, MM = Missing Value Source: NWS Daily Summary

Daily Weather History Graph

Daily Weather History Graph

Search for Another Location

Airport:

Trip Planner

Search our weather history database for the weather conditions in past years. The results will help you decide how hot, cold, wet, or windy it might be!

Date:

Astronomy

Oct. 31, 2012 Rise Set
Actual Time 7:15 AM MDT 5:43 PM MDT
Civil Twilight 6:47 AM MDT 6:11 PM MDT
Nautical Twilight 6:15 AM MDT 6:44 PM MDT
Astronomical Twilight 5:43 AM MDT 7:15 PM MDT
Moon 6:55 PM MDT (10/31) 8:59 AM MDT (10/31)
Length of Visible Light 11h 24m
Length of Day
10h 27m
Full, 97% of the Moon is Illuminated
Oct 31
Full
Nov 6
Last Quarter
Nov 13
New
Nov 20
First Quarter
Nov 28
Full

Hourly Weather History & Observations

Time (MDT) Temp. Windchill Dew Point Humidity Pressure Visibility Wind Dir Wind Speed Gust Speed Precip Events Conditions
12:53 AM 39.0 °F 31.4 °F 33.1 °F 79% 30.03 in 10.0 mi NNW 12.7 mph - N/A   Clear
1:53 AM 37.9 °F 32.7 °F 32.0 °F 79% 30.03 in 10.0 mi NW 6.9 mph - N/A   Clear
2:53 AM 39.9 °F 35.1 °F 33.1 °F 77% 30.02 in 10.0 mi NW 6.9 mph - N/A   Clear
3:53 AM 43.0 °F 37.2 °F 35.1 °F 74% 30.01 in 10.0 mi NW 10.4 mph - N/A   Clear
4:53 AM 37.9 °F 31.5 °F 33.1 °F 83% 30.02 in 10.0 mi West 9.2 mph - N/A   Clear
5:53 AM 39.0 °F 33.4 °F 33.1 °F 79% 30.05 in 10.0 mi WNW 8.1 mph - N/A   Clear
6:53 AM 39.0 °F 32.8 °F 33.1 °F 79% 30.06 in 10.0 mi WNW 9.2 mph - N/A   Clear
7:53 AM 41.0 °F 34.7 °F 33.1 °F 73% 30.07 in 10.0 mi WNW 10.4 mph - N/A   Clear
8:53 AM 48.0 °F - 35.1 °F 61% 30.08 in 10.0 mi NW 8.1 mph - N/A   Clear
9:53 AM 57.0 °F - 37.9 °F 49% 30.08 in 10.0 mi NW 4.6 mph - N/A   Clear
10:53 AM 66.0 °F - 37.0 °F 34% 30.06 in 10.0 mi NW 9.2 mph - N/A   Clear
11:53 AM 68.0 °F - 34.0 °F 28% 30.04 in 10.0 mi NW 6.9 mph - N/A   Clear
12:53 PM 71.1 °F - 33.1 °F 25% 30.03 in 10.0 mi NW 8.1 mph - N/A   Clear
1:53 PM 72.0 °F - 33.1 °F 24% 30.01 in 10.0 mi NNW 11.5 mph - N/A   Clear
2:53 PM 73.9 °F - 30.9 °F 21% 29.99 in 10.0 mi NW 9.2 mph - N/A   Clear
3:53 PM 71.1 °F - 30.0 °F 22% 30.00 in 10.0 mi NNW 9.2 mph - N/A   Clear
4:53 PM 66.0 °F - 30.9 °F 27% 30.02 in 10.0 mi NNW 5.8 mph - N/A   Clear
5:53 PM 59.0 °F - 32.0 °F 36% 30.05 in 10.0 mi NNW 5.8 mph - N/A   Clear
6:53 PM 55.0 °F - 32.0 °F 42% 30.08 in 10.0 mi NNW 4.6 mph - N/A   Clear
7:53 PM 52.0 °F - 33.1 °F 49% 30.08 in 10.0 mi Calm Calm - N/A   Clear
8:53 PM 46.9 °F - 33.1 °F 59% 30.08 in 10.0 mi West 3.5 mph - N/A   Clear
9:53 PM 43.0 °F 40.3 °F 33.1 °F 68% 30.07 in 10.0 mi WSW 4.6 mph - N/A   Clear
10:53 PM 42.1 °F 39.2 °F 33.1 °F 70% 30.05 in 10.0 mi West 4.6 mph - N/A   Clear
11:53 PM 43.0 °F 41.3 °F 33.1 °F 68% 30.05 in 10.0 mi WNW 3.5 mph - N/A   Clear